Showing default

GLOBALSTAR M070, 32264

Orbit data source: Space-Track

GLOBALSTAR M070, 32264 is a payload satellite owned by Globalstar (US) in LEO that was launched on Sat, 20 Oct 2007 UTC via a SOYUZ-FG launch vehicle from the Tyuratam Missile And Space Complex (TTMTR). Payload-class satellites include a variety of spacecraft equipped with specific instruments for various scientific and technological missions. These include communications satellites like Starlink; space stations such as the ISS; scientific satellites like the Hubble; Earth observation satellites from companies like Planet Labs, Umbra, and HawkEye 360; GPS; miniature CubeSats for education and research; and military/defense satellites.

Loading next visibility...
Identifier
32264, 2007-048B
Orbit
LEO
Last TLE update
9 hours ago
Origin
Manufacturer
SS/Loral
Mission
Non-operational Commercial Communications
Bus & Motor
LS-400, LS-400 AOCS
Mass
450 kg wet, 380 kg dry
Launch date (UTC)
2007-10-20 (18 years ago)
Launch vehicle
SOYUZ-FG
Launch site
Tyuratam Missile And Space Complex (TTMTR)
Object type
Payload
Rocket body
Debris
Shape & HBR
Box + 2 Pan, 12 m
Radar Cross Section
5.587 m², Large (>1 m²)

Expand to show TLE details & history

TLE from 9 hours ago
0 GLOBALSTAR M070
1 32264U 07048B   25181.91671388 -.00000080  00000-0  13294-3 0  9997
2 32264  51.9755  86.6769 0000663  69.4415  10.4397 12.62319547815409
Epoch: 2025-06-30T22:00Z
TLE epoch observation values (Epoch: 2025-06-30T22:00:04.079Z)
Latitude
50.98659°
Longitude
-88.73152°
Altitude
1,418.936 km
Speed
7.157 km/s
True Right ascension
10h 42m 01s
True Declination
50° 49' 57"
Sunlit
Object was in daylight at epoch
Visualization orbit readout
Latitude
-50.64942°
Longitude
124.7235°
Altitude
1,431.348 km
Speed
7.146 km/s
Apparent Right ascension
03h 35m 38s
Apparent Declination
-53° 16' 44"
Sunlit
Object is in daylight
Visualization observer readout
Local Sidereal Time
18:17:51
Azimuth
129.746° SE
Elevation
-59.629°
Doppler factor
1
Orbital elements
Apogee altitude
1,414.297 km
Perigee altitude
1,413.264 km
Semi-major axis
7,791.918 km
Eccentricity
0.00007
Inclination
51.9755°
RAAN
86.6769°
Arg. of periapsis
69.4415°
True anomaly
Unknown
Mean anomaly
10.4397°
Eccentric anomaly
Unknown
Mean motion
3.15556 °/min
Orbital period
114.08 mins
BSTAR
0.00013294
Loading maneuver chart data...
Loading SW <> Apogee altitude chart data...
Loading historical data...
Loading historical data...
Loading historical data...
Loading historical data...
Loading historical data...
Loading historical data...
Loading historical data...
Other satellites on launch #48 in the year 2007 (2007-10-20 UTC)

GLOBALSTAR M070 Visibility forecast

Observer location: undefined°, undefined°

Span
Click to sort rows by Start time (UTC) header in descending order
Start Az.
Max El. time (UTC)
Max El. Az.
Max El.
End time (UTC)
End Az.
13 mins2025-07-01 18:35:02.169Z174.649° S2025-07-01 18:41:02.169Z127.842° SE24.468°2025-07-01 18:48:02.169Z71.546° E
16 mins2025-07-01 20:33:02.169Z231.109° WSW2025-07-01 20:40:02.169Z246.033° WSW44.854°2025-07-01 20:49:02.169Z52.606° ENE
15 mins2025-07-01 22:34:02.169Z278.614° WNW2025-07-01 22:41:02.169Z344.796° N34.07°2025-07-01 22:49:02.169Z54.056° ENE
14 mins2025-07-02 00:36:02.169Z307.901° NW2025-07-02 00:43:02.169Z15.869° NNE32.485°2025-07-02 00:50:02.169Z76.12° E
16 mins2025-07-02 02:36:02.169Z309.52° NW2025-07-02 02:44:02.169Z59.003° ENE43.9°2025-07-02 02:52:02.169Z120.311° SE
13 mins2025-07-02 04:37:02.169Z288.039° WNW2025-07-02 04:43:02.169Z231.365° WSW29.994°2025-07-02 04:50:02.169Z173.443° S
|